Weather History for Johnstown, PA

Change the Weather History Date:

Monday, February 4, 2013

  Actual Average Record
Temperature  
Mean Temperature 18 °F 25 °F  
Max Temperature 26 °F 32 °F 63 °F (1903)
Min Temperature 10 °F 19 °F -8 °F (1985)
Degree Days  
Heating Degree Days 47 40  
Month to date heating degree days 160  
Since 1 July heating degree days 3977  
Cooling Degree Days 0 0  
Month to date cooling degree days 0  
Year to date cooling degree days 0  
Moisture  
Dew Point 12 °F    
Average Humidity 81    
Maximum Humidity 93    
Minimum Humidity 68    
Precipitation  
Precipitation 0.08 in 0.08 in 1.15 in (1961)
Month to date precipitation 0.33  
Year to date precipitation 3.21  
Sea Level Pressure  
Sea Level Pressure 29.90 in    
Wind  
Wind Speed 15 mph (WSW)    
Max Wind Speed 24 mph    
Max Gust Speed 38 mph    
Visibility 4 miles    
Events Snow    
T = Trace of Precipitation, MM = Missing Value Source: NWS Daily Summary

Daily Weather History Graph

Daily Weather History Graph

Search for Another Location

Airport:

Trip Planner

Search our weather history database for the weather conditions in past years. The results will help you decide how hot, cold, wet, or windy it might be!

Date:

Astronomy

Feb. 04, 2013 Rise Set
Actual Time 7:21 AM EST 5:37 PM EST
Civil Twilight 6:52 AM EST 6:06 PM EST
Nautical Twilight 6:20 AM EST 6:38 PM EST
Astronomical Twilight 5:48 AM EST 7:10 PM EST
Moon 1:55 AM EST (2/4) 11:59 AM EST (2/4)
Length of Visible Light 11h 13m
Length of Day
10h 16m
Last Quarter, 37% of the Moon is Illuminated
Feb 4
Last Quarter
Feb 10
New
Feb 17
First Quarter
Feb 25
Full
Mar 4
Last Quarter

Hourly Weather History & Observations

Time (EST) Temp. Windchill Dew Point Humidity Pressure Visibility Wind Dir Wind Speed Gust Speed Precip Events Conditions
12:07 AM 12.2 °F -5.8 °F 8.6 °F 85% 29.84 in 0.8 mi West 19.6 mph 28.8 mph 0.00 in Snow Light Snow
12:28 AM 12.2 °F -6.3 °F 8.6 °F 85% 29.85 in 1.0 mi West 20.7 mph 29.9 mph 0.00 in Snow Light Snow
12:54 AM 12.0 °F -5.6 °F 8.1 °F 84% 29.96 in 1.2 mi West 18.4 mph 24.2 mph 0.00 in Snow Light Snow
1:49 AM 12.2 °F -7.5 °F 6.8 °F 79% 29.86 in 1.2 mi West 24.2 mph 36.8 mph 0.00 in Snow Light Snow
1:54 AM 12.0 °F -7.3 °F 7.0 °F 80% 29.97 in 1.5 mi West 23.0 mph 32.2 mph 0.00 in Snow Light Snow
2:54 AM 12.0 °F -6.0 °F 7.0 °F 80% 29.99 in 2.0 mi West 19.6 mph 25.3 mph 0.00 in Snow Light Snow
3:23 AM 12.2 °F -4.8 °F 6.8 °F 79% 29.87 in 1.5 mi West 17.3 mph - 0.00 in Snow Light Snow
3:36 AM 12.2 °F -6.7 °F 6.8 °F 79% 29.87 in 2.5 mi West 21.9 mph 31.1 mph 0.00 in Snow Light Snow
3:47 AM 12.2 °F -5.8 °F 6.8 °F 79% 29.87 in 1.5 mi West 19.6 mph 28.8 mph 0.00 in Snow Light Snow
3:54 AM 12.0 °F -7.7 °F 7.0 °F 80% 29.99 in 1.0 mi West 24.2 mph 33.4 mph 0.00 in Snow Light Snow
5:54 AM 12.0 °F -6.0 °F 5.0 °F 73% 30.02 in 2.5 mi West 19.6 mph 38.0 mph 0.00 in Snow Light Snow
6:54 AM 10.9 °F -7.0 °F 5.0 °F 77% 30.03 in 2.5 mi West 18.4 mph 28.8 mph 0.03 in Snow Light Snow
7:02 AM 10.4 °F -7.2 °F 5.0 °F 79% 29.91 in 5.0 mi West 17.3 mph 29.9 mph 0.00 in Snow Light Snow
7:54 AM 10.9 °F -4.1 °F 6.1 °F 81% 30.04 in 6.0 mi West 12.7 mph 23.0 mph 0.00 in   Haze
8:34 AM 10.4 °F -5.4 °F 5.0 °F 79% 29.91 in 10.0 mi West 13.8 mph 21.9 mph N/A   Scattered Clouds
8:54 AM 12.0 °F -2.0 °F 5.0 °F 73% 30.03 in 10.0 mi West 11.5 mph 20.7 mph N/A   Clear
9:34 AM 12.2 °F -3.7 °F 5.0 °F 73% 29.89 in 10.0 mi WSW 15.0 mph 21.9 mph N/A   Mostly Cloudy
9:54 AM 14.0 °F -1.4 °F 6.1 °F 71% 30.01 in 9.0 mi West 15.0 mph 26.5 mph N/A   Overcast
10:54 AM 15.1 °F -0.1 °F 8.1 °F 74% 30.00 in 9.0 mi WSW 15.0 mph 18.4 mph 0.00 in   Overcast
11:54 AM 18.0 °F 3.6 °F 10.0 °F 71% 29.99 in 10.0 mi West 15.0 mph 23.0 mph 0.00 in   Overcast
12:54 PM 19.9 °F 8.6 °F 10.9 °F 68% 29.97 in 10.0 mi WSW 10.4 mph - 0.00 in   Overcast
1:03 PM 19.4 °F 7.2 °F 10.4 °F 68% 29.84 in 10.0 mi WSW 11.5 mph - N/A   Overcast
1:54 PM 21.0 °F 8.6 °F 12.0 °F 68% 29.94 in 7.0 mi West 12.7 mph - 0.00 in Snow Light Snow
2:54 PM 21.0 °F 10.6 °F 14.0 °F 74% 29.93 in 4.0 mi WSW 9.2 mph - 0.00 in Snow Light Snow
3:00 PM 21.2 °F 12.6 °F 15.8 °F 80% 29.82 in 2.0 mi West 6.9 mph - 0.00 in Snow Light Snow
3:08 PM 21.2 °F 12.6 °F 15.8 °F 80% 29.82 in 1.5 mi West 6.9 mph - 0.00 in Snow Light Snow
3:54 PM 21.0 °F 12.4 °F 17.1 °F 85% 29.92 in 1.2 mi West 6.9 mph - 0.00 in Snow Light Snow
4:54 PM 21.0 °F 16.2 °F 17.1 °F 85% 29.90 in 1.2 mi SW 3.5 mph - 0.00 in Snow Light Snow
5:17 PM 21.2 °F - 17.6 °F 86% 29.78 in 1.2 mi Calm Calm - 0.00 in Snow Light Snow
5:31 PM 21.2 °F - 17.6 °F 86% 29.78 in 0.8 mi Calm Calm - 0.00 in Snow Light Snow
5:41 PM 21.2 °F - 17.6 °F 86% 29.77 in 1.0 mi Calm Calm - 0.01 in Snow Light Snow
5:54 PM 21.0 °F 16.2 °F 18.0 °F 88% 29.89 in 1.8 mi SSE 3.5 mph - 0.01 in Snow Light Snow
6:54 PM 21.9 °F 13.4 °F 19.0 °F 89% 29.90 in 1.8 mi SSW 6.9 mph - 0.01 in Snow Light Snow
7:54 PM 21.9 °F 15.7 °F 19.9 °F 92% 29.90 in 1.2 mi SSW 4.6 mph - 0.02 in Snow Light Snow
8:21 PM 21.2 °F 13.6 °F 19.4 °F 93% 29.77 in 3.0 mi South 5.8 mph - 0.00 in Snow Light Snow
8:54 PM 23.0 °F 14.7 °F 21.0 °F 92% 29.88 in 5.0 mi SSW 6.9 mph - 0.00 in Snow Light Snow
9:06 PM 23.0 °F 15.8 °F 21.2 °F 93% 29.77 in 9.0 mi SSW 5.8 mph - 0.00 in   Overcast
9:54 PM 24.1 °F 16.0 °F 21.9 °F 91% 29.87 in 10.0 mi SW 6.9 mph - 0.00 in   Overcast
10:08 PM 24.8 °F 19.1 °F 21.2 °F 86% 29.76 in 10.0 mi SW 4.6 mph - N/A   Overcast
10:54 PM 26.1 °F 14.0 °F 23.0 °F 88% 29.86 in 10.0 mi West 15.0 mph 19.6 mph N/A   Overcast
11:54 PM 26.1 °F 15.6 °F 23.0 °F 88% 29.86 in 3.0 mi West 11.5 mph - 0.01 in Snow Light Snow